When you browse on this site, cookies collect data to enhance your experience and personalize the content and advertising you see.
Visit our Privacy Policy to learn more. By continuing to use the site, you agree to this use of cookies and data.
  • In Portugal
  • List of Countries
  • For 7 days
  • Water Temperature
  • Satellite Maps
  • Weather Map
  • Weather Widgets
  • user-avatar
    Login

    Hourly Weather Kostyushino

    Today, 20 April, Saturday

    Time Temperature Precipitation Wind Pressure Humidity
    00:00 +6°C° 0.3 mm 2 mps 755 mmHg 72%
    01:00 +6°C° 0.3 mm 2 mps 755 mmHg 78%
    02:00 +6°C° 0 mm 1 mps 755 mmHg 84%
    03:00 +6°C° 0.6 mm 1 mps 754 mmHg 87%
    04:00 +6°C° 0.6 mm 1 mps 754 mmHg 90%
    05:00 +6°C° 0.6 mm 1 mps 754 mmHg 94%
    06:00 +5°C° 0.3 mm 2 mps 754 mmHg 90%
    07:00 +6°C° 0.3 mm 2 mps 754 mmHg 87%
    08:00 +7°C° 0 mm 2 mps 754 mmHg 80%
    09:00 +8°C° 0.1 mm 2 mps 754 mmHg 74%
    10:00 +8°C° 0.1 mm 2 mps 754 mmHg 68%
    11:00 +9°C° 0.1 mm 2 mps 755 mmHg 61%
    12:00 +9°C° 0.2 mm 2 mps 755 mmHg 61%
    13:00 +9°C° 0.2 mm 2 mps 755 mmHg 60%
    14:00 +9°C° 0.2 mm 2 mps 755 mmHg 60%
    15:00 +9°C° 0.2 mm 2 mps 755 mmHg 62%
    16:00 +9°C° 0.2 mm 2 mps 755 mmHg 65%
    17:00 +8°C° 0.2 mm 3 mps 755 mmHg 68%
    18:00 +7°C° 0 mm 2 mps 755 mmHg 74%
    19:00 +6°C° 0 mm 2 mps 756 mmHg 80%
    20:00 +5°C° 0 mm 2 mps 756 mmHg 85%
    21:00 +4°C° 0 mm 2 mps 756 mmHg 87%
    22:00 +3°C° 0 mm 2 mps 756 mmHg 89%
    23:00 +3°C° 0 mm 2 mps 756 mmHg 91%

    Tomorrow, 21 April, Sunday

    Time Temperature Precipitation Wind Pressure Humidity
    00:00 +2°C° 0 mm 2 mps 757 mmHg 92%
    01:00 +2°C° 0 mm 2 mps 757 mmHg 93%
    02:00 +3°C° 0 mm 1 mps 757 mmHg 94%
    03:00 +3°C° 0 mm 1 mps 757 mmHg 95%
    04:00 +3°C° 0 mm 1 mps 757 mmHg 95%
    05:00 +3°C° 0 mm 1 mps 757 mmHg 96%
    06:00 +4°C° 0 mm 1 mps 757 mmHg 90%
    07:00 +6°C° 0 mm 1 mps 758 mmHg 84%
    08:00 +8°C° 0 mm 1 mps 758 mmHg 77%
    09:00 +10°C° 0 mm 1 mps 758 mmHg 71%
    10:00 +11°C° 0 mm 1 mps 758 mmHg 65%
    11:00 +13°C° 0 mm 1 mps 758 mmHg 58%
    12:00 +14°C° 0 mm 1 mps 758 mmHg 55%
    13:00 +15°C° 0 mm 1 mps 758 mmHg 51%
    14:00 +15°C° 0 mm 1 mps 758 mmHg 48%
    15:00 +14°C° 0 mm 0 mps 758 mmHg 49%
    16:00 +14°C° 0 mm 0 mps 757 mmHg 50%
    17:00 +13°C° 0 mm 0 mps 757 mmHg 50%
    18:00 +12°C° 0 mm 0 mps 757 mmHg 56%
    19:00 +10°C° 0 mm 0 mps 758 mmHg 62%
    20:00 +8°C° 0 mm 0 mps 758 mmHg 68%
    21:00 +8°C° 0 mm 0 mps 758 mmHg 71%
    22:00 +7°C° 0 mm 0 mps 758 mmHg 74%
    23:00 +6°C° 0 mm 0 mps 758 mmHg 77%

    Day after tomorrow, 22 April, Monday

    Time Temperature Precipitation Wind Pressure Humidity
    00:00 +6°C° 0 mm 0 mps 758 mmHg 78%
    01:00 +6°C° 0 mm 0 mps 758 mmHg 78%
    02:00 +6°C° 0 mm 0 mps 759 mmHg 79%
    03:00 +6°C° 0 mm 0 mps 759 mmHg 80%
    04:00 +6°C° 0 mm 1 mps 759 mmHg 80%
    05:00 +6°C° 0 mm 1 mps 759 mmHg 81%
    06:00 +8°C° 0 mm 1 mps 759 mmHg 74%
    07:00 +10°C° 0 mm 1 mps 759 mmHg 67%
    08:00 +12°C° 0 mm 1 mps 759 mmHg 60%
    09:00 +13°C° 0 mm 1 mps 759 mmHg 55%
    10:00 +15°C° 0 mm 2 mps 759 mmHg 51%
    11:00 +16°C° 0 mm 2 mps 759 mmHg 47%
    12:00 +17°C° 0 mm 2 mps 759 mmHg 45%
    13:00 +17°C° 0 mm 2 mps 758 mmHg 42%
    14:00 +18°C° 0 mm 2 mps 758 mmHg 40%
    15:00 +17°C° 0 mm 2 mps 758 mmHg 42%
    16:00 +17°C° 0 mm 2 mps 758 mmHg 45%
    17:00 +18°C° 0 mm 1 mps 757 mmHg 47%
    18:00 +15°C° 0 mm 1 mps 758 mmHg 53%
    19:00 +13°C° 0 mm 1 mps 758 mmHg 58%
    20:00 +11°C° 0 mm 1 mps 758 mmHg 64%
    21:00 +11°C° 0 mm 1 mps 758 mmHg 67%
    22:00 +10°C° 0 mm 1 mps 758 mmHg 70%
    23:00 +8°C° 0 mm 2 mps 758 mmHg 74%

    23 April, Tuesday

    Time Temperature Precipitation Wind Pressure Humidity
    00:00 +8°C° 0 mm 2 mps 758 mmHg 75%
    01:00 +8°C° 0 mm 2 mps 759 mmHg 77%
    02:00 +7°C° 0 mm 2 mps 759 mmHg 79%
    03:00 +7°C° 0 mm 2 mps 759 mmHg 80%
    04:00 +7°C° 0 mm 2 mps 759 mmHg 80%
    05:00 +7°C° 0 mm 2 mps 759 mmHg 81%
    06:00 +9°C° 0 mm 2 mps 759 mmHg 73%
    07:00 +11°C° 0 mm 3 mps 759 mmHg 65%
    08:00 +13°C° 0 mm 3 mps 760 mmHg 57%
    09:00 +14°C° 0 mm 4 mps 759 mmHg 51%
    10:00 +15°C° 0 mm 4 mps 759 mmHg 46%
    11:00 +17°C° 0 mm 5 mps 759 mmHg 40%
    12:00 +17°C° 0 mm 5 mps 759 mmHg 39%
    13:00 +19°C° 0 mm 5 mps 759 mmHg 38%
    14:00 +19°C° 0 mm 5 mps 759 mmHg 37%
    15:00 +19°C° 0 mm 4 mps 758 mmHg 39%
    16:00 +18°C° 0 mm 3 mps 758 mmHg 42%
    17:00 +18°C° 0 mm 3 mps 758 mmHg 44%
    18:00 +16°C° 0 mm 3 mps 758 mmHg 50%
    19:00 +14°C° 0 mm 2 mps 758 mmHg 55%
    20:00 +12°C° 0 mm 2 mps 759 mmHg 61%
    21:00 +10°C° 0 mm 2 mps 759 mmHg 63%
    22:00 +10°C° 0 mm 2 mps 759 mmHg 65%
    23:00 +9°C° 0 mm 2 mps 759 mmHg 67%

    24 April, Wednesday

    Time Temperature Precipitation Wind Pressure Humidity
    00:00 +8°C° 0 mm 2 mps 759 mmHg 69%
    01:00 +8°C° 0 mm 2 mps 760 mmHg 71%
    02:00 +7°C° 0 mm 2 mps 760 mmHg 73%
    03:00 +7°C° 0 mm 2 mps 760 mmHg 75%
    04:00 +7°C° 0 mm 2 mps 760 mmHg 76%
    05:00 +7°C° 0 mm 2 mps 760 mmHg 78%
    06:00 +9°C° 0 mm 2 mps 760 mmHg 71%
    07:00 +12°C° 0 mm 2 mps 760 mmHg 64%
    08:00 +14°C° 0 mm 2 mps 760 mmHg 57%
    09:00 +14°C° 0 mm 3 mps 760 mmHg 51%
    10:00 +17°C° 0 mm 3 mps 760 mmHg 45%
    11:00 +18°C° 0 mm 3 mps 760 mmHg 39%
    12:00 +18°C° 0 mm 3 mps 760 mmHg 38%
    13:00 +19°C° 0 mm 3 mps 760 mmHg 37%
    14:00 +19°C° 0 mm 3 mps 760 mmHg 36%
    15:00 +19°C° 0 mm 3 mps 759 mmHg 39%
    16:00 +19°C° 0 mm 2 mps 759 mmHg 41%
    17:00 +18°C° 0 mm 2 mps 759 mmHg 44%
    18:00 +18°C° 0 mm 1 mps 759 mmHg 49%
    19:00 +15°C° 0 mm 1 mps 759 mmHg 54%
    20:00 +13°C° 0 mm 1 mps 759 mmHg 59%
    21:00 +12°C° 0 mm 1 mps 759 mmHg 61%
    22:00 +11°C° 0 mm 1 mps 759 mmHg 63%
    23:00 +11°C° 0 mm 1 mps 759 mmHg 65%

    25 April, Thursday

    Time Temperature Precipitation Wind Pressure Humidity
    00:00 +10°C° 0 mm 1 mps 760 mmHg 67%
    01:00 +10°C° 0 mm 1 mps 760 mmHg 69%
    02:00 +9°C° 0 mm 1 mps 760 mmHg 70%
    03:00 +9°C° 0 mm 1 mps 760 mmHg 71%
    04:00 +9°C° 0 mm 1 mps 760 mmHg 71%
    05:00 +9°C° 0 mm 1 mps 760 mmHg 72%
    06:00 +11°C° 0 mm 1 mps 760 mmHg 65%
    07:00 +14°C° 0 mm 1 mps 760 mmHg 58%
    08:00 +16°C° 0 mm 1 mps 760 mmHg 51%
    09:00 +18°C° 0 mm 1 mps 760 mmHg 46%
    10:00 +20°C° 0 mm 1 mps 759 mmHg 42%
    11:00 +20°C° 0 mm 2 mps 759 mmHg 38%
    12:00 +20°C° 0 mm 2 mps 759 mmHg 37%
    13:00 +21°C° 0 mm 2 mps 758 mmHg 36%
    14:00 +21°C° 0 mm 2 mps 758 mmHg 36%
    15:00 +21°C° 0 mm 2 mps 757 mmHg 38%
    16:00 +20°C° 0 mm 2 mps 757 mmHg 41%
    17:00 +21°C° 0 mm 1 mps 757 mmHg 44%
    18:00 +19°C° 0 mm 1 mps 757 mmHg 49%
    19:00 +16°C° 0 mm 1 mps 756 mmHg 54%
    20:00 +14°C° 0 mm 1 mps 756 mmHg 59%
    21:00 +13°C° 0 mm 1 mps 756 mmHg 62%
    22:00 +13°C° 0 mm 1 mps 756 mmHg 64%
    23:00 +12°C° 0 mm 1 mps 756 mmHg 67%
    Show more